Regional Weather Roundup
Issued by NWS

Home | Current Version | Previous Version | Graphics & Text | Print | Product List | Glossary On
Versions: 1 2 3 4 5 6 7 8 9 10 11 12 13 14 15 16 17 18 19 20 21 22 23 24 25 26 27 28 29 30 31 32 33 34 35 36 37 38 39 40 41 42 43 44 45 46 47 48 49 50
000
ASUS43 KDMX 232206
RWRIA

WEATHER ROUNDUP FOR IOWA
NATIONAL WEATHER SERVICE DES MOINES IA
500 PM CDT SUN JUL 23 2017

NOTE: "FAIR" INDICATES FEW OR NO CLOUDS BELOW 12,000 FEET WITH NO
SIGNIFICANT WEATHER AND/OR OBSTRUCTIONS TO VISIBILITY.

* - THESE STATIONS ARE NOT NWS STATIONS...THUS NOT UNDER NWS
QUALITY CONTROL.  THEY ALSO DO NOT REPORT WEATHER SUCH
AS PRECIPITATION OR FOG.

IAZ001>003-012>014-020>022-031>034-043>046-232300-
   NORTHWEST IOWA

CITY           SKY/WX    TMP DP  RH WIND       PRES   REMARKS
CARROLL *        N/A     81  64  57 N10G16    29.94F HX  82
CHEROKEE *     PTSUNNY   81  59  48 N12       29.97S HX  81
DENISON *        N/A     81  61  50 NW9G15    29.97F HX  81
ORANGE CITY *    N/A     81  61  50 N9        29.99S HX  81
SHELDON *        N/A     77  63  61 N12       29.97S
SIOUX CITY       N/A     85  61  44 NW12      29.96S HX  85
SPENCER          N/A     79  59  50 N15       29.99R HX  80
STORM LAKE *     N/A     79  61  53 N14       29.98R HX  80
$$

IAZ055>058-069>071-079>083-090>094-232300-
   SOUTHWEST IOWA

CITY           SKY/WX    TMP DP  RH WIND       PRES   REMARKS
ATLANTIC *       N/A     84  63  48 N12G18    29.94S HX  85
AUDUBON *        N/A     82  63  51 NW9G16    29.96S HX  83
CLARINDA *       N/A     86  70  58 N13       29.94S HX  90
COUNCIL BLFS *   N/A     84  63  48 N13       29.95S HX  85
CRESTON *        N/A     88  59  37 N9G18     29.94S HX  87
HARLAN  *        N/A     82  64  54 N12       29.98F HX  84
LAMONI           N/A     92  64  39 N13       29.89F HX  93
RED OAK *        N/A     86  66  51 N10       29.93S HX  88
SHENANDOAH *     N/A     86  68  54 N10       29.93S HX  89
$$

IAZ047>049-059>061-072>074-084-232300-
   CENTRAL IOWA

CITY           SKY/WX    TMP DP  RH WIND       PRES   REMARKS
AMES             N/A     82  64  54 N14G22    29.92S HX  83
ANKENY *         N/A     82  61  47 N14       29.92S HX  83
BOONE *          N/A     82  61  47 N15G22    29.92F HX  83
CHARITON *       N/A     88  61  40 N14       29.89F HX  88
DES MOINES       N/A     86  59  39 NW14G25   29.90S HX  85
GRINNELL*        N/A     79  64  59 NW10G20   29.92S HX  81
KNOXVILLE *      N/A     84  63  48 NW14G20   29.89S HX  85
MARSHALLTOWN     N/A     82  61  48 NW17      29.91S HX  83
NEWTON *         N/A     81  64  57 NW12G17   29.91S HX  82
PELLA *          N/A     86  60  41 N9G16     29.91S HX  85
$$

IAZ004>006-015-016-023>025-035-036-232300-
   NORTH CENTRAL IOWA

CITY           SKY/WX    TMP DP  RH WIND       PRES   REMARKS
ALGONA *         N/A     75  59  57 N12G17    29.97S
CLARION *        N/A     77  63  61 N14G21    29.95S
ESTHERVILLE      N/A     74  60  61 N13       29.98S
FORT DODGE *   PTSUNNY   81  61  50 N7        29.96S HX  81
MASON CITY     PTSUNNY   77  59  53 N20       29.96S
FOREST CITY *  PTSUNNY   73  59  60 N16       29.96R
WEBSTER CITY *   N/A     81  63  54 NW10G20   29.92F HX  82
IOWA FALLS *     N/A     80  61  53 NW14G21   29.94S HX  81
$$

IAZ007>011-017>019-026>030-037>042-050>054-066-232300-
   NORTHEAST IOWA

CITY           SKY/WX    TMP DP  RH WIND       PRES   REMARKS
CEDAR RAPIDS     N/A     81  64  56 NW16      29.87S HX  82
CHARLES CITY *   N/A     77  63  61 N14       29.92S
DECORAH *      PTSUNNY   75  61  60 NW14G21   29.90R
DUBUQUE          N/A     80  62  54 NW18      29.86R HX  81
MONTICELLO *     N/A     81  63  54 NW10G18   29.86S HX  82
OELWEIN *        N/A    N/A N/A N/A MISG        N/A
WATERLOO         N/A     77  61  57 NW13      29.89S
$$

IAZ064-065-067-068-078-232300-
   EAST CENTRAL IOWA

CITY           SKY/WX    TMP DP  RH WIND       PRES   REMARKS
DAVENPORT        N/A     83  66  56 NW15G23   29.85S HX  85
IOWA CITY        N/A     84  61  45 NW16G25   29.88R HX  84
MT. PLEASANT *   N/A     88  60  39 NW15G22   29.85S HX  87
MUSCATINE *      N/A     84  64  51 NW14G20   29.85S HX  86
QUAD CITIES      N/A     86  64  47 NW21      29.82S HX  87
$$

IAZ062-063-075>077-085>089-095>099-232300-
   SOUTHEAST IOWA

CITY           SKY/WX    TMP DP  RH WIND       PRES   REMARKS
BURLINGTON       N/A     88  67  49 NW8G20    29.83F HX  91
FAIRFIELD *      N/A     86  63  45 N14G21    29.87S HX  87
FORT MADISON *   N/A     90  66  45 NW10G20   29.84F HX  92
KEOKUK *         N/A     91  68  46 NW13G18   29.82F HX  95
OSKALOOSA *      N/A     85  62  45 NW9G16    29.89S HX  86
CENTERVILLE *    N/A     88  61  40 N12       29.89F HX  88
OTTUMWA          N/A     89  61  38 N18       29.87F HX  89
WASHINGTON *     N/A     82  66  57 N14G22    29.88S HX  85
$$

ABBREVIATIONS USED IN REMARKS
   TC - TEMPERATURES IN CELSIUS
  WCI - WIND CHILL INDEX
   HX - HEAT INDEX
  VSB - VISIBILITY
$$





USA.gov is the U.S. government's official web portal to all federal, state and local government web resources and services.